1510876800.45,23992,9.38,73840.0,-2.21,-3.23,-3.15,0,*57
1510876801.65,23993,9.38,73842.5,-2.23,-3.27,-3.27,0,*51
1510876802.86,23994,9.38,73840.5,-2.21,-3.23,-3.23,0,*54
1510876804.05,23995,9.38,73842.8,-2.19,-3.15,-3.23,0,*5B
1510876805.27,23996,9.38,73842.0,-2.21,-3.15,-3.23,0,*53
1510876806.48,23997,9.38,73836.3,-2.21,-3.23,-3.15,0,*52
1510876807.68,23998,9.38,73838.0,-2.23,-3.27,-3.19,0,*57
1510876808.9,23999,9.38,73840.0,-2.21,-3.15,-3.23,0,*5C
1510876810.12,24000,9.38,73840.0,-2.21,-3.15,-3.15,0,*57
1510876811.34,24001,9.38,73838.0,-2.21,-3.15,-3.23,0,*53
1510876812.53,24002,9.38,73842.8,-2.19,-3.15,-3.15,0,*5E
1510876813.75,24003,9.38,73840.3,-2.21,-3.15,-3.15,0,*54
1510876814.94,24004,9.38,73842.3,-2.19,-3.15,-3.15,0,*58
1510876816.13,24005,9.38,73836.8,-2.19,-3.15,-3.23,0,*5C
1510876817.32,24006,9.38,73842.5,-2.19,-3.23,-3.15,0,*5F
1510876818.5,24007,9.38,73842.5,-2.19,-3.23,-3.23,0,*5B
1510876819.69,24008,9.38,73840.5,-2.19,-3.15,-3.15,0,*54
1510876820.88,24009,9.38,73840.0,-2.19,-3.15,-3.15,0,*55
1510876822.07,24010,9.38,73838.0,-2.19,-3.15,-3.15,0,*5D
1510876823.26,24011,9.38,73840.3,-2.19,-3.15,-3.15,0,*5C
1510876824.45,24012,9.38,73838.8,-2.19,-3.15,-3.15,0,*5F
1510876825.67,24013,9.38,73840.0,-2.21,-3.15,-3.15,0,*55
1510876826.86,24014,9.38,73840.5,-2.19,-3.23,-3.23,0,*59
1510876828.07,24015,9.38,73840.3,-2.21,-3.15,-3.23,0,*56
1510876829.29,24016,9.38,73838.3,-2.21,-3.23,-3.23,0,*50
1510876830.5,24017,9.38,73840.5,-2.17,-3.19,-3.23,0,*5D
1510876831.73,24018,9.38,73840.0,-2.21,-3.27,-3.27,0,*5E
1510876832.93,24019,9.38,73840.0,-2.23,-3.19,-3.27,0,*50
1510876834.14,24020,9.38,73838.0,-2.17,-3.11,-3.19,0,*58
1510876835.35,24021,9.38,73838.5,-2.23,-3.27,-3.27,0,*56
1510876836.54,24022,9.38,73840.3,-2.19,-3.15,-3.23,0,*59
1510876837.76,24023,9.38,73838.0,-2.21,-3.15,-3.15,0,*56
1510876838.97,24024,9.38,73838.8,-2.21,-3.15,-3.23,0,*54
1510876840.16,24025,9.38,73842.3,-2.19,-3.23,-3.23,0,*5B
1510876841.34,24026,9.38,73838.3,-2.19,-3.23,-3.23,0,*58
1510876842.52,24027,9.38,73842.8,-2.19,-3.23,-3.23,0,*59
1510876843.75,24028,9.38,73840.5,-2.21,-3.27,-3.27,0,*5D
1510876844.94,24029,9.38,73840.0,-2.19,-3.23,-3.27,0,*53
1510876846.13,24030,9.38,73840.0,-2.19,-3.23,-3.35,0,*58
1510876847.32,24031,9.38,73842.3,-2.19,-3.23,-3.27,0,*5A
1510876848.54,24032,9.38,73840.0,-2.21,-3.23,-3.27,0,*52
1510876849.76,24033,9.38,73840.8,-2.21,-3.23,-3.15,0,*52
1510876850.97,24034,9.38,73844.8,-2.21,-3.23,-3.23,0,*50
1510876852.15,24035,9.38,73840.5,-2.19,-3.23,-3.23,0,*5A
1510876853.37,24036,9.38,73842.0,-2.21,-3.23,-3.27,0,*56
1510876854.58,24037,9.38,73840.0,-2.21,-3.23,-3.23,0,*53
1510876855.79,24038,9.38,73840.3,-2.21,-3.23,-3.23,0,*5C
1510876857.01,24039,9.38,73842.8,-2.21,-3.23,-3.35,0,*5A
1510876858.21,24040,9.38,73842.3,-2.19,-3.27,-3.27,0,*58
1510876859.43,24041,9.38,73842.0,-2.21,-3.23,-3.27,0,*56
1510876860.63,24042,9.38,73840.8,-2.23,-3.19,-3.31,0,*59
1510876861.84,24043,9.38,73838.5,-2.17,-3.15,-3.23,0,*50
1510876863.02,24044,9.38,73840.3,-2.19,-3.23,-3.23,0,*5C
1510876864.22,24045,9.38,73842.3,-2.19,-3.15,-3.27,0,*5C
1510876865.44,24046,9.38,73840.3,-2.17,-3.19,-3.19,0,*50
1510876866.63,24047,9.38,73846.0,-2.19,-3.15,-3.27,0,*5E
1510876867.85,24048,9.38,73840.3,-2.21,-3.23,-3.15,0,*5E
1510876869.06,24049,9.38,73842.5,-2.21,-3.23,-3.15,0,*5F
1510876870.29,24050,9.38,73838.3,-2.21,-3.23,-3.27,0,*56
1510876871.48,24051,9.38,73842.5,-2.23,-3.27,-3.23,0,*55
1510876872.67,24052,9.38,73842.0,-2.19,-3.15,-3.23,0,*5E
1510876873.85,24053,9.38,73842.3,-2.19,-3.23,-3.19,0,*53
1510876875.04,24054,9.38,73842.8,-2.19,-3.23,-3.23,0,*5D
1510876876.26,24055,9.38,73840.0,-2.21,-3.15,-3.27,0,*56
1510876877.46,24056,9.38,73842.8,-2.23,-3.27,-3.31,0,*51
1510876878.68,24057,9.38,73842.0,-2.21,-3.23,-3.35,0,*52
1510876879.91,24058,9.38,73842.3,-2.21,-3.15,-3.27,0,*5B
1510876881.14,24059,9.38,73838.8,-2.21,-3.15,-3.27,0,*5A
1510876882.35,24060,9.38,73840.5,-2.21,-3.23,-3.23,0,*51
1510876883.54,24061,9.38,73838.0,-2.19,-3.23,-3.27,0,*5F
1510876884.76,24062,9.38,73840.3,-2.21,-3.15,-3.23,0,*56
1510876885.98,24063,9.38,73840.5,-2.21,-3.23,-3.27,0,*56
1510876887.18,24064,9.38,73842.5,-2.23,-3.23,-3.27,0,*53
1510876888.41,24065,9.38,73840.8,-2.21,-3.15,-3.27,0,*55
1510876889.64,24066,9.38,73842.3,-2.21,-3.15,-3.27,0,*56
1510876890.86,24067,9.38,73840.8,-2.21,-3.23,-3.27,0,*52
1510876892.07,24068,9.38,73840.0,-2.21,-3.23,-3.35,0,*5E
1510876893.27,24069,9.38,73840.5,-2.23,-3.19,-3.39,0,*58
1510876894.49,24070,9.38,73840.5,-2.21,-3.23,-3.35,0,*57
1510876895.74,24071,9.38,73842.5,-2.21,-3.35,-3.47,0,*54
1510876896.96,24072,9.38,73840.0,-2.21,-3.27,-3.39,0,*5D
1510876898.19,24073,9.38,73846.0,-2.21,-3.35,-3.39,0,*5F
1510876899.41,24074,9.38,73846.5,-2.23,-3.39,-3.51,0,*58
1510876900.63,24075,9.38,73844.5,-2.23,-3.31,-3.43,0,*52
1510876901.88,24076,9.38,73842.5,-2.21,-3.35,-3.51,0,*54
1510876903.12,24077,9.38,73842.8,-2.21,-3.35,-3.47,0,*52
1510876904.37,24078,9.38,73840.0,-2.21,-3.35,-3.51,0,*5A
1510876905.59,24079,9.38,73840.0,-2.23,-3.35,-3.59,0,*51
1510876906.84,24080,9.38,73842.3,-2.21,-3.35,-3.51,0,*5D
1510876908.08,24081,9.38,73838.8,-2.23,-3.43,-3.63,0,*5E
1510876909.35,24082,9.38,73840.3,-2.21,-3.47,-3.59,0,*52
1510876910.6,24083,9.38,73840.0,-2.23,-3.43,-3.63,0,*5C
1510876911.84,24084,9.38,73838.5,-2.23,-3.43,-3.67,0,*5F
1510876913.08,24085,9.38,73842.8,-2.21,-3.39,-3.63,0,*55
1510876914.36,24086,9.38,73842.3,-2.21,-3.47,-3.59,0,*56
1510876915.62,24087,9.38,73840.8,-2.21,-3.47,-3.71,0,*5D
1510876916.87,24088,9.38,73842.0,-2.23,-3.47,-3.67,0,*57
1510876918.13,24089,9.38,73840.3,-2.21,-3.47,-3.71,0,*53
1510876919.4,24090,9.38,73844.3,-2.21,-3.47,-3.63,0,*58
1510876920.65,24091,9.38,73840.0,-2.21,-3.39,-3.63,0,*50
1510876921.91,24092,9.38,73840.3,-2.21,-3.47,-3.63,0,*5A
1510876923.18,24093,9.38,73838.3,-2.21,-3.47,-3.71,0,*58
1510876924.4,24094,9.38,73842.8,-2.23,-3.39,-3.71,0,*54
1510876925.67,24095,9.38,73842.5,-2.21,-3.47,-3.63,0,*5D
1510876926.91,24096,9.38,73844.3,-2.21,-3.39,-3.71,0,*54
1510876928.15,24097,9.38,73840.8,-2.21,-3.39,-3.71,0,*55
1510876929.42,24098,9.38,73844.0,-2.21,-3.47,-3.71,0,*53
1510876930.65,24099,9.38,73844.5,-2.23,-3.47,-3.75,0,*54
1510876931.92,24100,9.38,73844.8,-2.21,-3.51,-3.71,0,*54
1510876933.18,24101,9.38,73842.3,-2.21,-3.51,-3.71,0,*55
1510876934.41,24102,9.38,73844.5,-2.23,-3.43,-3.75,0,*53
1510876935.64,24103,9.38,73842.5,-2.23,-3.51,-3.75,0,*51
1510876936.88,24104,9.38,73844.0,-2.21,-3.39,-3.63,0,*5D
1510876938.15,24105,9.38,73844.5,-2.21,-3.47,-3.63,0,*55
1510876939.42,24106,9.38,73838.5,-2.21,-3.47,-3.59,0,*5F
1510876940.67,24107,9.38,73840.5,-2.23,-3.51,-3.67,0,*56
1510876941.94,24108,9.38,73842.5,-2.21,-3.51,-3.59,0,*56
1510876943.21,24109,9.38,73844.0,-2.21,-3.47,-3.71,0,*5A
1510876944.44,24110,9.38,73842.5,-2.23,-3.51,-3.75,0,*53
1510876945.7,24111,9.38,73840.3,-2.21,-3.51,-3.71,0,*54
1510876946.97,24112,9.38,73840.0,-2.21,-3.51,-3.67,0,*50
1510876948.24,24113,9.38,73842.3,-2.21,-3.47,-3.71,0,*51
1510876949.51,24114,9.38,73840.8,-2.21,-3.51,-3.71,0,*51
1510876950.77,24115,9.38,73842.3,-2.21,-3.59,-3.71,0,*58
1510876952.04,24116,9.38,73840.3,-2.21,-3.51,-3.63,0,*50
1510876953.31,24117,9.38,73842.3,-2.21,-3.51,-3.71,0,*52
1510876954.58,24118,9.38,73842.0,-2.21,-3.51,-3.71,0,*5D
1510876955.84,24119,9.38,73842.0,-2.21,-3.51,-3.71,0,*5C
1510876957.11,24120,9.38,73840.0,-2.21,-3.51,-3.71,0,*56
1510876958.33,24121,9.38,73840.0,-2.19,-3.51,-3.75,0,*58
1510876959.56,24122,9.38,73840.3,-2.19,-3.59,-3.75,0,*53
1510876960.78,24123,9.38,73840.3,-2.19,-3.59,-3.75,0,*52
1510876962.0,24124,9.38,73840.0,-2.19,-3.59,-3.75,0,*55
1510876963.25,24125,9.38,73842.5,-2.21,-3.59,-3.75,0,*5F
1510876964.51,24126,9.38,73840.5,-2.21,-3.59,-3.75,0,*5C
1510876965.76,24127,9.38,73842.5,-2.21,-3.51,-3.75,0,*55
1510876967.02,24128,9.38,73844.3,-2.21,-3.51,-3.71,0,*5E
1510876968.29,24129,9.38,73842.8,-2.21,-3.51,-3.71,0,*5F
1510876969.56,24130,9.38,73842.3,-2.21,-3.47,-3.63,0,*53
1510876970.83,24131,9.38,73840.3,-2.21,-3.51,-3.63,0,*55
1510876972.1,24132,9.38,73842.5,-2.21,-3.51,-3.63,0,*56
1510876973.36,24133,9.38,73836.5,-2.21,-3.47,-3.63,0,*50
1510876974.61,24134,9.38,73840.5,-2.21,-3.39,-3.63,0,*5E
1510876975.84,24135,9.38,73840.5,-2.19,-3.47,-3.63,0,*5D
1510876977.12,24136,9.38,73840.0,-2.21,-3.47,-3.59,0,*5C
1510876978.36,24137,9.38,73838.8,-2.19,-3.47,-3.63,0,*5F
1510876979.63,24138,9.38,73842.5,-2.21,-3.51,-3.51,0,*5D
1510876980.9,24139,9.38,73836.8,-2.21,-3.51,-3.51,0,*5C
1510876982.17,24140,9.38,73840.5,-2.21,-3.51,-3.59,0,*5A
1510876983.41,24141,9.38,73840.0,-2.19,-3.47,-3.59,0,*57
1510876984.65,24142,9.38,73840.3,-2.19,-3.47,-3.51,0,*5C
1510876985.89,24143,9.38,73840.8,-2.19,-3.47,-3.51,0,*5D
1510876987.13,24144,9.38,73838.5,-2.19,-3.47,-3.51,0,*5A
1510876988.33,24145,9.38,73842.3,-2.19,-3.39,-3.39,0,*5C
1510876989.54,24146,9.38,73838.8,-2.19,-3.39,-3.47,0,*56
1510876990.74,24147,9.38,73840.8,-2.19,-3.27,-3.39,0,*51
1510876991.93,24148,9.38,73842.8,-2.19,-3.27,-3.35,0,*52
1510876993.13,24149,9.38,73842.3,-2.19,-3.35,-3.27,0,*53
1510876994.33,24150,9.38,73840.0,-2.19,-3.35,-3.35,0,*58
1510876995.55,24151,9.38,73838.3,-2.17,-3.31,-3.31,0,*57
1510876996.74,24152,9.38,73838.5,-2.19,-3.27,-3.35,0,*59
1510876997.97,24153,9.38,73840.8,-2.21,-3.27,-3.35,0,*53
1510876999.17,24154,9.38,73842.5,-2.15,-3.31,-3.31,0,*50
1510877000.36,24155,9.38,73840.5,-2.19,-3.27,-3.35,0,*5E
1510877001.55,24156,9.38,73840.3,-2.19,-3.23,-3.35,0,*59
1510877002.74,24157,9.38,73842.5,-2.19,-3.23,-3.35,0,*58
1510877003.96,24158,9.38,73838.5,-2.17,-3.19,-3.35,0,*50
1510877005.16,24159,9.38,73842.5,-2.19,-3.23,-3.47,0,*53
1510877006.38,24160,9.38,73842.3,-2.19,-3.27,-3.51,0,*5A
1510877007.59,24161,9.38,73840.5,-2.19,-3.39,-3.47,0,*53
1510877008.86,24162,9.38,73840.3,-2.17,-3.43,-3.43,0,*57
1510877010.07,24163,9.38,73842.8,-2.19,-3.35,-3.55,0,*5E
1510877011.31,24164,9.38,73836.5,-2.19,-3.47,-3.59,0,*50
1510877012.53,24165,9.38,73836.3,-2.19,-3.39,-3.63,0,*51
1510877013.8,24166,9.38,73842.3,-2.17,-3.47,-3.59,0,*5C
1510877015.04,24167,9.38,73836.3,-2.19,-3.51,-3.59,0,*54
1510877016.31,24168,9.38,73842.8,-2.17,-3.55,-3.59,0,*51
1510877017.55,24169,9.38,73842.5,-2.19,-3.59,-3.71,0,*58
1510877018.78,24170,9.38,73840.5,-2.19,-3.59,-3.71,0,*50
1510877020.02,24171,9.38,73842.5,-2.19,-3.59,-3.63,0,*52
1510877021.29,24172,9.38,73842.0,-2.17,-3.55,-3.59,0,*5A
1510877022.53,24173,9.38,73842.3,-2.19,-3.59,-3.63,0,*50
1510877023.79,24174,9.38,73840.3,-2.17,-3.55,-3.67,0,*51
1510877025.03,24175,9.38,73840.5,-2.19,-3.63,-3.63,0,*5F
1510877026.27,24176,9.38,73842.8,-2.19,-3.59,-3.63,0,*55
1510877027.5,24177,9.38,73846.0,-2.19,-3.63,-3.63,0,*5D
1510877028.78,24178,9.38,73844.8,-2.17,-3.59,-3.59,0,*5C
1510877030.02,24179,9.38,73842.0,-2.19,-3.71,-3.59,0,*59
1510877031.26,24180,9.38,73840.3,-2.19,-3.63,-3.59,0,*5C
1510877032.51,24181,9.38,73842.8,-2.19,-3.59,-3.59,0,*54
1510877033.75,24182,9.38,73840.8,-2.19,-3.51,-3.51,0,*57
1510877034.99,24183,9.38,73840.5,-2.19,-3.59,-3.47,0,*59
1510877036.21,24184,9.38,73842.5,-2.19,-3.59,-3.39,0,*57
1510877037.42,24185,9.38,73840.5,-2.19,-3.51,-3.39,0,*5E
1510877038.66,24186,9.38,73840.0,-2.19,-3.59,-3.47,0,*5C
1510877039.88,24187,9.38,73836.3,-2.19,-3.47,-3.39,0,*5B
1510877041.12,24188,9.38,73842.8,-2.17,-3.43,-3.31,0,*56
1510877042.34,24189,9.38,73842.5,-2.15,-3.43,-3.31,0,*55
1510877043.54,24190,9.38,73840.0,-2.19,-3.39,-3.35,0,*58
1510877044.73,24191,9.38,73842.5,-2.19,-3.35,-3.19,0,*5B
1510877045.92,24192,9.38,73840.5,-2.19,-3.35,-3.15,0,*54
1510877047.13,24193,9.38,73840.8,-2.17,-3.23,-3.23,0,*59
1510877048.32,24194,9.38,73838.8,-2.19,-3.35,-3.23,0,*57
1510877049.53,24195,9.38,73838.5,-2.17,-3.23,-3.19,0,*56
1510877050.74,24196,9.38,73838.5,-2.17,-3.23,-3.11,0,*5D
1510877051.94,24197,9.38,73840.3,-2.15,-3.31,-3.11,0,*5D
1510877053.16,24198,9.38,73840.5,-2.17,-3.31,-3.19,0,*58
1510877054.36,24199,9.38,73838.5,-2.19,-3.35,-3.35,0,*5D
1510877055.58,24200,9.38,73840.3,-2.17,-3.35,-3.35,0,*50
1510877056.78,24201,9.38,73840.0,-2.19,-3.35,-3.27,0,*5C
1510877057.98,24202,9.38,73840.5,-2.19,-3.27,-3.27,0,*5C
1510877059.19,24203,9.38,73842.5,-2.17,-3.31,-3.23,0,*50
1510877060.38,24204,9.38,73842.3,-2.19,-3.35,-3.23,0,*5D
1510877061.56,24205,9.38,73842.8,-2.19,-3.23,-3.23,0,*5B
1510877062.74,24206,9.38,73838.3,-2.19,-3.23,-3.23,0,*58
1510877063.96,24207,9.38,73842.3,-2.17,-3.19,-3.11,0,*5F
1510877065.17,24208,9.38,73838.3,-2.17,-3.19,-3.19,0,*58
1510877066.37,24209,9.38,73844.8,-2.19,-3.19,-3.11,0,*5F
1510877067.58,24210,9.38,73842.8,-2.17,-3.19,-3.11,0,*59
1510877068.77,24211,9.38,73840.8,-2.19,-3.15,-3.23,0,*5B
1510877069.96,24212,9.38,73842.0,-2.19,-3.23,-3.15,0,*58
1510877071.18,24213,9.38,73842.5,-2.17,-3.11,-3.11,0,*52
1510877072.39,24214,9.38,73838.8,-2.17,-3.11,-3.19,0,*5D
1510877073.6,24215,9.38,73842.8,-2.17,-3.23,-3.11,0,*55
1510877074.79,24216,9.38,73840.8,-2.19,-3.15,-3.23,0,*5C
1510877075.98,24217,9.38,73842.3,-2.19,-3.11,-3.15,0,*5C
1510877077.2,24218,9.38,73842.8,-2.17,-3.11,-3.19,0,*51
1510877078.38,24219,9.38,73842.3,-2.19,-3.23,-3.15,0,*53
1510877079.59,24220,9.38,73840.3,-2.17,-3.19,-3.19,0,*52
1510877080.78,24221,9.38,73836.3,-2.19,-3.23,-3.15,0,*58
1510877081.99,24222,9.38,73838.5,-2.17,-3.11,-3.19,0,*58
1510877083.18,24223,9.38,73842.0,-2.19,-3.15,-3.23,0,*5A
1510877084.4,24224,9.38,73842.0,-2.17,-3.11,-3.11,0,*56
1510877085.61,24225,9.38,73842.0,-2.17,-3.19,-3.19,0,*57
1510877086.83,24226,9.38,73840.3,-2.17,-3.19,-3.19,0,*54
1510877088.02,24227,9.38,73846.3,-2.19,-3.15,-3.15,0,*5B
1510877089.21,24228,9.38,73838.5,-2.19,-3.11,-3.11,0,*54
1510877090.43,24229,9.38,73842.5,-2.17,-3.11,-3.11,0,*5B
1510877091.65,24230,9.38,73840.3,-2.17,-3.07,-3.07,0,*53
1510877092.87,24231,9.38,73840.8,-2.17,-3.11,-3.11,0,*52
1510877094.08,24232,9.38,73842.3,-2.17,-3.11,-3.11,0,*51
1510877095.3,24233,9.38,73836.5,-2.17,-3.11,-3.19,0,*58
1510877096.51,24234,9.38,73844.5,-2.17,-3.11,-3.19,0,*5F
1510877097.73,24235,9.38,73840.3,-2.17,-3.11,-3.11,0,*56
1510877098.92,24236,9.38,73844.5,-2.19,-3.15,-3.23,0,*5E
1510877100.13,24237,9.38,73842.0,-2.17,-3.11,-3.19,0,*5C
1510877101.32,24238,9.38,73842.8,-2.19,-3.15,-3.15,0,*55
1510877102.52,24239,9.38,73840.8,-2.19,-3.07,-3.11,0,*53
1510877103.71,24240,9.38,73842.3,-2.19,-3.15,-3.15,0,*5A
1510877104.92,24241,9.38,73840.0,-2.17,-3.11,-3.11,0,*55
1510877106.14,24242,9.38,73838.0,-2.17,-3.11,-3.19,0,*5E
1510877107.33,24243,9.38,73836.8,-2.19,-3.11,-3.15,0,*5D
1510877108.55,24244,9.38,73838.8,-2.17,-3.11,-3.11,0,*50
1510877109.73,24245,9.38,73844.5,-2.19,-3.15,-3.23,0,*5A
1510877110.95,24246,9.38,73844.5,-2.17,-3.19,-3.11,0,*5A
1510877112.14,24247,9.38,73842.8,-2.19,-3.23,-3.27,0,*59
1510877113.36,24248,9.38,73842.5,-2.17,-3.11,-3.15,0,*58
1510877114.57,24249,9.38,73842.0,-2.17,-3.11,-3.19,0,*55
1510877115.79,24250,9.38,73842.5,-2.17,-3.07,-3.11,0,*52
1510877116.98,24251,9.38,73844.0,-2.15,-3.07,-3.19,0,*59
1510877118.2,24252,9.38,73842.8,-2.17,-3.07,-3.19,0,*58
1510877119.41,24253,9.38,73840.5,-2.17,-3.11,-3.19,0,*5E
1510877120.63,24254,9.38,73840.0,-2.17,-3.11,-3.19,0,*59
1510877121.84,24255,9.38,73842.0,-2.17,-3.07,-3.11,0,*57
1510877123.06,24256,9.38,73842.8,-2.17,-3.11,-3.23,0,*52
1510877124.27,24257,9.38,73842.0,-2.17,-3.11,-3.19,0,*5A
1510877125.49,24258,9.38,73842.8,-2.17,-3.11,-3.19,0,*55
1510877126.7,24259,9.38,73844.8,-2.17,-3.07,-3.19,0,*53
1510877127.91,24260,9.38,73842.0,-2.17,-3.11,-3.19,0,*5E
1510877129.1,24261,9.38,73844.8,-2.19,-3.11,-3.23,0,*58
1510877130.31,24262,9.38,73842.8,-2.17,-3.11,-3.19,0,*5C
1510877131.5,24263,9.38,73846.3,-2.19,-3.15,-3.23,0,*5E
1510877132.7,24264,9.38,73844.8,-2.15,-3.07,-3.19,0,*5F
1510877133.91,24265,9.38,73846.5,-2.17,-3.07,-3.23,0,*55
1510877135.12,24266,9.38,73844.0,-2.17,-3.11,-3.23,0,*51
1510877136.33,24267,9.38,73848.5,-2.17,-3.19,-3.31,0,*5B
1510877137.55,24268,9.38,73846.5,-2.17,-3.19,-3.35,0,*50
1510877138.79,24269,9.38,73844.3,-2.17,-3.19,-3.43,0,*50
1510877140.02,24270,9.38,73842.3,-2.17,-3.23,-3.43,0,*51
1510877141.26,24271,9.38,73842.5,-2.17,-3.31,-3.47,0,*57
1510877142.5,24272,9.38,73840.5,-2.17,-3.23,-3.55,0,*54
1510877143.71,24273,9.38,73840.3,-2.19,-3.23,-3.59,0,*57
1510877144.94,24274,9.38,73838.8,-2.17,-3.23,-3.47,0,*51
1510877146.16,24275,9.38,73838.5,-2.19,-3.27,-3.51,0,*5D
1510877147.4,24276,9.38,73838.0,-2.17,-3.31,-3.55,0,*53
1510877148.64,24277,9.38,73838.0,-2.17,-3.31,-3.55,0,*52
1510877149.87,24278,9.38,73834.0,-2.17,-3.31,-3.55,0,*5D
1510877151.11,24279,9.38,73836.3,-2.17,-3.35,-3.55,0,*58
1510877152.35,24280,9.38,73832.5,-2.17,-3.31,-3.47,0,*59
1510877153.58,24281,9.38,73834.8,-2.15,-3.31,-3.43,0,*5E
1510877154.8,24282,9.38,73834.5,-2.15,-3.35,-3.43,0,*59
1510877156.04,24283,9.38,73834.5,-2.17,-3.31,-3.43,0,*5E
1510877157.26,24284,9.38,73832.5,-2.15,-3.31,-3.43,0,*5B
1510877158.48,24285,9.38,73836.8,-2.15,-3.23,-3.43,0,*59
1510877159.69,24286,9.38,73836.8,-2.15,-3.23,-3.47,0,*5E
1510877160.93,24287,9.38,73836.5,-2.17,-3.31,-3.43,0,*5A
1510877162.14,24288,9.38,73836.0,-2.15,-3.35,-3.35,0,*52
1510877163.38,24289,9.38,73838.8,-2.17,-3.35,-3.43,0,*50
1510877164.59,24290,9.38,73838.0,-2.19,-3.39,-3.47,0,*5E
1510877165.81,24291,9.38,73838.8,-2.15,-3.31,-3.43,0,*5F
1510877167.06,24292,9.38,73842.8,-2.17,-3.31,-3.43,0,*5E
1510877168.32,24293,9.38,73844.0,-2.17,-3.43,-3.43,0,*5A
1510877169.54,24294,9.38,73842.5,-2.19,-3.35,-3.43,0,*52
1510877170.76,24295,9.38,73840.8,-2.17,-3.35,-3.35,0,*5C
1510877172.0,24296,9.38,73836.0,-2.17,-3.35,-3.43,0,*5E
1510877173.26,24297,9.38,73842.0,-2.17,-3.43,-3.43,0,*5E
1510877174.49,24298,9.38,73840.5,-2.17,-3.35,-3.35,0,*51
1510877175.73,24299,9.38,73838.3,-2.17,-3.35,-3.43,0,*51
1510877176.97,24300,9.38,73842.3,-2.17,-3.35,-3.43,0,*50
1510877178.21,24301,9.38,73842.0,-2.17,-3.35,-3.43,0,*51
1510877179.48,24302,9.38,73838.3,-2.17,-3.43,-3.47,0,*57
1510877180.72,24303,9.38,73838.3,-2.15,-3.43,-3.55,0,*57
1510877181.98,24304,9.38,73836.5,-2.17,-3.47,-3.55,0,*56
1510877183.24,24305,9.38,73840.3,-2.17,-3.55,-3.55,0,*54
1510877184.5,24306,9.38,73836.3,-2.17,-3.47,-3.55,0,*54
1510877185.74,24307,9.38,73838.8,-2.15,-3.47,-3.47,0,*54
1510877186.98,24308,9.38,73842.3,-2.15,-3.55,-3.55,0,*5B
1510877188.23,24309,9.38,73842.3,-2.15,-3.47,-3.47,0,*5A
1510877189.47,24310,9.38,73840.5,-2.15,-3.43,-3.43,0,*52
1510877190.74,24311,9.38,73842.8,-2.17,-3.43,-3.43,0,*51
1510877192.0,24312,9.38,73842.5,-2.17,-3.55,-3.43,0,*55
1510877193.26,24313,9.38,73840.5,-2.17,-3.55,-3.55,0,*53
1510877194.53,24314,9.38,73838.8,-2.17,-3.47,-3.43,0,*50
1510877195.77,24315,9.38,73844.3,-2.15,-3.47,-3.47,0,*57
1510877197.01,24316,9.38,73846.3,-2.15,-3.55,-3.47,0,*57
1510877198.27,24317,9.38,73844.0,-2.17,-3.55,-3.47,0,*54
1510877199.54,24318,9.38,73840.8,-2.17,-3.47,-3.43,0,*5C
1510877200.76,24319,9.38,73846.3,-2.17,-3.35,-3.35,0,*59
1510877201.98,24320,9.38,73840.0,-2.17,-3.35,-3.31,0,*57
1510877203.22,24321,9.38,73842.8,-2.17,-3.35,-3.43,0,*53
1510877204.44,24322,9.38,73842.3,-2.17,-3.35,-3.31,0,*55
1510877205.66,24323,9.38,73842.5,-2.17,-3.35,-3.35,0,*50
1510877206.86,24324,9.38,73842.5,-2.15,-3.35,-3.35,0,*55
1510877208.08,24325,9.38,73842.8,-2.17,-3.35,-3.35,0,*56
1510877209.28,24326,9.38,73846.0,-2.15,-3.31,-3.31,0,*57
1510877210.47,24327,9.38,73846.0,-2.15,-3.23,-3.35,0,*51
1510877211.67,24328,9.38,73846.0,-2.19,-3.27,-3.35,0,*56
1510877212.87,24329,9.38,73844.5,-2.15,-3.31,-3.31,0,*58
1510877214.06,24330,9.38,73842.5,-2.15,-3.31,-3.23,0,*53
1510877215.28,24331,9.38,73842.5,-2.13,-3.27,-3.19,0,*5A
1510877216.48,24332,9.38,73842.5,-2.15,-3.31,-3.23,0,*51
1510877217.66,24333,9.38,73842.3,-2.15,-3.23,-3.23,0,*53
1510877218.89,24334,9.38,73840.8,-2.13,-3.19,-3.27,0,*5F
1510877220.07,24335,9.38,73842.8,-2.15,-3.23,-3.23,0,*55
1510877221.26,24336,9.38,73844.5,-2.15,-3.23,-3.23,0,*56
1510877222.48,24337,9.38,73838.0,-2.13,-3.15,-3.19,0,*5D
1510877223.67,24338,9.38,73840.3,-2.15,-3.23,-3.23,0,*58
1510877224.86,24339,9.38,73842.3,-2.15,-3.19,-3.23,0,*50
1510877226.05,24340,9.38,73840.3,-2.15,-3.19,-3.23,0,*5E
1510877227.24,24341,9.38,73842.3,-2.15,-3.19,-3.23,0,*5F
1510877228.43,24342,9.38,73840.8,-2.15,-3.11,-3.31,0,*57
1510877229.62,24343,9.38,73840.5,-2.15,-3.23,-3.23,0,*54
1510877230.81,24344,9.38,73840.5,-2.15,-3.23,-3.31,0,*50
1510877232.01,24345,9.38,73838.8,-2.15,-3.23,-3.31,0,*51
1510877233.21,24346,9.38,73838.0,-2.15,-3.31,-3.35,0,*55
1510877234.41,24347,9.38,73838.3,-2.15,-3.31,-3.31,0,*50
1510877235.6,24348,9.38,73838.8,-2.15,-3.23,-3.31,0,*5C
1510877236.8,24349,9.38,73838.0,-2.15,-3.19,-3.27,0,*53
1510877237.99,24350,9.38,73836.8,-2.15,-3.23,-3.31,0,*55
1510877239.19,24351,9.38,73836.8,-2.15,-3.19,-3.31,0,*5D
1510877240.41,24352,9.38,73838.8,-2.13,-3.19,-3.27,0,*5F
1510877241.6,24353,9.38,73838.8,-2.15,-3.23,-3.31,0,*56
1510877242.8,24354,9.38,73840.3,-2.15,-3.31,-3.31,0,*52
1510877243.99,24355,9.38,73840.8,-2.15,-3.23,-3.31,0,*50
1510877245.2,24356,9.38,73836.8,-2.15,-3.23,-3.43,0,*56
1510877246.41,24357,9.38,73832.3,-2.15,-3.31,-3.35,0,*55
1510877247.6,24358,9.38,73838.3,-2.15,-3.23,-3.31,0,*5D
1510877248.79,24359,9.38,73842.5,-2.15,-3.19,-3.31,0,*55
1510877249.98,24360,9.38,73842.0,-2.15,-3.23,-3.31,0,*56
1510877251.18,24361,9.38,73836.5,-2.15,-3.23,-3.27,0,*50
1510877252.41,24362,9.38,73836.3,-2.15,-3.31,-3.43,0,*52
1510877253.62,24363,9.38,73840.8,-2.15,-3.31,-3.47,0,*57
1510877254.84,24364,9.38,73838.8,-2.15,-3.23,-3.43,0,*57
1510877256.08,24365,9.38,73836.3,-2.13,-3.27,-3.43,0,*54
1510877257.31,24366,9.38,73840.0,-2.15,-3.31,-3.43,0,*56
1510877258.53,24367,9.38,73838.3,-2.15,-3.35,-3.43,0,*53
1510877259.75,24368,9.38,73836.0,-2.15,-3.35,-3.43,0,*5C
1510877260.97,24369,9.38,73836.8,-2.15,-3.35,-3.47,0,*59
1510877262.21,24370,9.38,73834.5,-2.13,-3.39,-3.51,0,*5C
1510877263.43,24371,9.38,73836.0,-2.15,-3.35,-3.43,0,*54
1510877264.64,24372,9.38,73834.0,-2.15,-3.35,-3.35,0,*56
1510877265.86,24373,9.38,73842.0,-2.13,-3.27,-3.31,0,*56
1510877267.1,24374,9.38,73836.5,-2.13,-3.31,-3.43,0,*53
1510877268.34,24375,9.38,73836.5,-2.15,-3.43,-3.55,0,*56
1510877269.58,24376,9.38,73834.5,-2.15,-3.43,-3.47,0,*56
1510877270.82,24377,9.38,73838.3,-2.15,-3.43,-3.47,0,*57
1510877272.06,24378,9.38,73836.8,-2.15,-3.43,-3.47,0,*58
1510877273.29,24379,9.38,73836.0,-2.15,-3.35,-3.43,0,*5C
1510877274.53,24380,9.38,73838.3,-2.15,-3.43,-3.55,0,*5C
1510877275.77,24381,9.38,73840.5,-2.13,-3.31,-3.43,0,*59
1510877276.99,24382,9.38,73838.8,-2.15,-3.35,-3.47,0,*5C
1510877278.23,24383,9.38,73840.0,-2.13,-3.31,-3.43,0,*5B
1510877279.48,24384,9.38,73838.0,-2.13,-3.31,-3.43,0,*5C
1510877280.69,24385,9.38,73836.5,-2.15,-3.35,-3.47,0,*5B
1510877281.91,24386,9.38,73838.5,-2.15,-3.35,-3.47,0,*58
1510877283.13,24387,9.38,73836.3,-2.15,-3.35,-3.47,0,*59
1510877284.35,24388,9.38,73834.3,-2.13,-3.31,-3.39,0,*5D
1510877285.58,24389,9.38,73836.8,-2.15,-3.27,-3.43,0,*50
1510877286.8,24390,9.38,73838.5,-2.15,-3.31,-3.55,0,*58
1510877288.04,24391,9.38,73838.5,-2.13,-3.39,-3.51,0,*53
1510877289.28,24392,9.38,73838.3,-2.13,-3.31,-3.51,0,*58
1510877290.5,24393,9.38,73838.0,-2.15,-3.35,-3.47,0,*5C
1510877291.74,24394,9.38,73838.5,-2.13,-3.39,-3.51,0,*56
1510877292.98,24395,9.38,73838.8,-2.15,-3.43,-3.47,0,*5B
1510877294.23,24396,9.38,73838.3,-2.13,-3.39,-3.51,0,*54
1510877295.47,24397,9.38,73838.3,-2.13,-3.31,-3.43,0,*5E
1510877296.71,24398,9.38,73838.8,-2.13,-3.31,-3.43,0,*51
1510877297.93,24399,9.38,73840.3,-2.13,-3.31,-3.39,0,*5D
1510877299.16,24400,9.38,73842.0,-2.15,-3.35,-3.43,0,*55
1510877300.4,24401,9.38,73838.8,-2.13,-3.43,-3.31,0,*56
1510877301.62,24402,9.38,73842.3,-2.13,-3.39,-3.39,0,*50
1510877302.84,24403,9.38,73842.5,-2.13,-3.31,-3.31,0,*51
1510877304.06,24404,9.38,73842.3,-2.13,-3.31,-3.31,0,*56
1510877305.28,24405,9.38,73842.5,-2.13,-3.31,-3.31,0,*57
1510877306.5,24406,9.38,73840.8,-2.13,-3.31,-3.31,0,*54
1510877307.7,24407,9.38,73840.5,-2.15,-3.35,-3.35,0,*53
1510877308.9,24408,9.38,73842.3,-2.15,-3.35,-3.31,0,*58
1510877310.12,24409,9.38,73838.8,-2.13,-3.31,-3.27,0,*5C
1510877311.32,24410,9.38,73838.5,-2.15,-3.31,-3.31,0,*55
1510877312.52,24411,9.38,73840.8,-2.15,-3.31,-3.35,0,*50
1510877313.71,24412,9.38,73838.3,-2.15,-3.23,-3.23,0,*57